"read_dt","SO2 (ppb)","flags","PMT voltage (V)","lamp voltage (V)","lamp intensity (Hz)","internal temp (C)","react chamber temp (C)","sample flow (l/min)","pres (mmHg)","SO2 bkg (ppb)","SO2 coefficient"
2017-04-08 00:00:00,1682E-3,5C000400,-0724,0837,12011,032.5,045.6,0.212,751.8,01.17,0.508
2017-04-08 00:01:00,1737E-3,5C000400,-0724,0837,12078,032.5,045.6,0.212,751.8,01.17,0.508
2017-04-08 00:02:00,1697E-3,5C000400,-0724,0837,12082,032.5,045.6,0.212,751.8,01.17,0.508
2017-04-08 00:03:00,1725E-3,5C000400,-0724,0837,12007,032.5,045.6,0.212,751.8,01.17,0.508
2017-04-08 00:04:00,1686E-3,5C000400,-0724,0837,12138,032.5,045.6,0.212,751.8,01.17,0.508
2017-04-08 00:05:00,1588E-3,5C000400,-0724,0837,12137,032.5,045.6,0.212,751.8,01.17,0.508
2017-04-08 00:06:00,1567E-3,5C000400,-0724,0837,12239,032.6,045.6,0.211,751.8,01.17,0.508
2017-04-08 00:07:00,1687E-3,5C000400,-0724,0837,12053,032.6,045.6,0.212,751.8,01.17,0.508
2017-04-08 00:08:00,1754E-3,5C000400,-0724,0837,12152,032.6,045.6,0.212,751.8,01.17,0.508
2017-04-08 00:09:00,1658E-3,5C000400,-0724,0837,12120,032.6,045.6,0.212,751.8,01.17,0.508
2017-04-08 00:10:00,1710E-3,5C000400,-0724,0838,12020,032.6,045.6,0.212,751.8,01.17,0.508
2017-04-08 00:11:00,1650E-3,5C000400,-0724,0837,11965,032.6,045.6,0.211,751.8,01.17,0.508
2017-04-08 00:12:00,1690E-3,5C000400,-0724,0837,12014,032.6,045.6,0.212,751.8,01.17,0.508
2017-04-08 00:13:00,1642E-3,5C000400,-0724,0837,12126,032.6,045.6,0.212,751.8,01.17,0.508
2017-04-08 00:14:00,1597E-3,5C000400,-0724,0838,12022,032.6,045.6,0.212,751.8,01.17,0.508
2017-04-08 00:15:00,1640E-3,5C000400,-0724,0837,11967,032.6,045.6,0.212,751.8,01.17,0.508
2017-04-08 00:16:00,1667E-3,5C000400,-0724,0837,12080,032.6,045.6,0.211,751.8,01.17,0.508
2017-04-08 00:17:00,1589E-3,5C000400,-0724,0838,12080,032.6,045.6,0.211,751.8,01.17,0.508
2017-04-08 00:18:00,1650E-3,5C000400,-0724,0837,12126,032.6,045.6,0.211,751.8,01.17,0.508
2017-04-08 00:19:00,1625E-3,5C000400,-0724,0837,12004,032.7,045.6,0.212,751.8,01.17,0.508
2017-04-08 00:20:00,1557E-3,5C000400,-0724,0837,12027,032.7,045.6,0.212,751.8,01.17,0.508
2017-04-08 00:21:00,1744E-3,5C000400,-0724,0837,12063,032.7,045.6,0.211,751.8,01.17,0.508
2017-04-08 00:22:00,1619E-3,5C000400,-0724,0837,11967,032.7,045.6,0.211,751.8,01.17,0.508
2017-04-08 00:23:00,1648E-3,5C000400,-0724,0838,12056,032.7,045.6,0.211,751.8,01.17,0.508
2017-04-08 00:24:00,1624E-3,5C000400,-0724,0838,12065,032.7,045.6,0.212,751.8,01.17,0.508
2017-04-08 00:25:00,1767E-3,5C000400,-0724,0837,11985,032.7,045.6,0.212,751.8,01.17,0.508
2017-04-08 00:26:00,1689E-3,5C000400,-0724,0837,12007,032.7,045.6,0.211,751.8,01.17,0.508
2017-04-08 00:27:00,1629E-3,5C000400,-0724,0838,12138,032.7,045.6,0.211,751.8,01.17,0.508
2017-04-08 00:28:00,1774E-3,5C000400,-0724,0837,12151,032.7,045.6,0.211,751.8,01.17,0.508
2017-04-08 00:29:00,1676E-3,5C000400,-0724,0837,12090,032.7,045.6,0.211,751.8,01.17,0.508
2017-04-08 00:30:00,1745E-3,5C000400,-0724,0837,12039,032.7,045.6,0.211,751.8,01.17,0.508
2017-04-08 00:31:00,1608E-3,5C000400,-0724,0837,12185,032.8,045.6,0.211,751.8,01.17,0.508
2017-04-08 00:32:00,1590E-3,5C000400,-0724,0837,12121,032.8,045.6,0.211,751.8,01.17,0.508
2017-04-08 00:33:00,1678E-3,5C000400,-0724,0836,12068,032.8,045.6,0.211,751.8,01.17,0.508
2017-04-08 00:34:00,1608E-3,5C000400,-0724,0837,12052,032.8,045.6,0.211,751.8,01.17,0.508
2017-04-08 00:35:00,1615E-3,5C000400,-0724,0838,12094,032.8,045.6,0.211,751.8,01.17,0.508
2017-04-08 00:36:00,1774E-3,5C000400,-0724,0838,12037,032.8,045.6,0.211,751.8,01.17,0.508
2017-04-08 00:37:00,1695E-3,5C000400,-0724,0838,12211,032.8,045.6,0.211,751.8,01.17,0.508
2017-04-08 00:38:00,1762E-3,5C000400,-0724,0838,12099,032.8,045.6,0.211,751.8,01.17,0.508
2017-04-08 00:39:00,1734E-3,5C000400,-0724,0837,12059,032.8,045.6,0.211,751.8,01.17,0.508
2017-04-08 00:40:00,1527E-3,5C000400,-0724,0838,12136,032.8,045.6,0.211,751.8,01.17,0.508
2017-04-08 00:41:00,1618E-3,5C000400,-0724,0837,12093,032.8,045.6,0.211,751.8,01.17,0.508
2017-04-08 00:42:00,1617E-3,5C000400,-0724,0838,12110,032.8,045.6,0.211,751.8,01.17,0.508
2017-04-08 00:43:00,1696E-3,5C000400,-0724,0837,12033,032.8,045.6,0.211,751.8,01.17,0.508
2017-04-08 00:44:00,1637E-3,5C000400,-0724,0837,12000,032.8,045.6,0.211,751.8,01.17,0.508
2017-04-08 00:45:00,1686E-3,5C000400,-0724,0837,12076,032.9,045.6,0.211,751.8,01.17,0.508
2017-04-08 00:46:00,1759E-3,5C000400,-0724,0838,12148,032.9,045.6,0.211,751.8,01.17,0.508
2017-04-08 00:47:00,1655E-3,5C000400,-0724,0838,12113,032.9,045.6,0.211,751.8,01.17,0.508
2017-04-08 00:48:00,1570E-3,5C000400,-0724,0837,12192,032.9,045.6,0.211,751.8,01.17,0.508
2017-04-08 00:49:00,1840E-3,5C000400,-0724,0837,12076,032.9,045.6,0.211,751.8,01.17,0.508
2017-04-08 00:50:00,1650E-3,5C000400,-0724,0837,12026,032.9,045.6,0.211,751.7,01.17,0.508
2017-04-08 00:51:00,1531E-3,5C000400,-0724,0838,12031,032.9,045.6,0.211,751.7,01.17,0.508
2017-04-08 00:52:00,1697E-3,5C000400,-0724,0837,12096,032.9,045.6,0.211,751.8,01.17,0.508
2017-04-08 00:53:00,1614E-3,5C000400,-0724,0837,12189,032.9,045.6,0.211,751.8,01.17,0.508
2017-04-08 00:54:00,1546E-3,5C000400,-0724,0838,12044,032.9,045.6,0.211,751.8,01.17,0.508
2017-04-08 00:55:00,1649E-3,5C000400,-0724,0838,12129,032.9,045.6,0.211,751.8,01.17,0.508
2017-04-08 00:56:00,1756E-3,5C000400,-0724,0837,12125,032.9,045.6,0.211,751.8,01.17,0.508
2017-04-08 00:57:00,1751E-3,5C000400,-0724,0838,12068,033.0,045.6,0.211,751.8,01.17,0.508
2017-04-08 00:58:00,1661E-3,5C000400,-0724,0838,11977,033.0,045.6,0.211,751.7,01.17,0.508
2017-04-08 00:59:00,1671E-3,5C000400,-0724,0838,12079,033.0,045.6,0.211,751.7,01.17,0.508
2017-04-08 01:00:00,1492E-3,5C000400,-0724,0837,12100,033.0,045.6,0.210,751.7,01.17,0.508
2017-04-08 01:01:00,1746E-3,5C000400,-0724,0837,12103,033.0,045.6,0.211,751.7,01.17,0.508
2017-04-08 01:02:00,1576E-3,5C000400,-0724,0838,12086,033.0,045.6,0.211,751.7,01.17,0.508
2017-04-08 01:03:00,1595E-3,5C000400,-0724,0837,11957,033.0,045.6,0.211,751.7,01.17,0.508
2017-04-08 01:04:00,1649E-3,5C000400,-0724,0838,12026,033.0,045.6,0.211,751.7,01.17,0.508
2017-04-08 01:05:00,1592E-3,5C000400,-0724,0838,11949,033.0,045.6,0.211,751.8,01.17,0.508
2017-04-08 01:06:00,1526E-3,5C000400,-0724,0837,12050,033.0,045.6,0.211,751.8,01.17,0.508
2017-04-08 01:07:00,1651E-3,5C000400,-0724,0837,12148,033.0,045.6,0.211,751.8,01.17,0.508
2017-04-08 01:08:00,1677E-3,5C000400,-0724,0837,11945,033.1,045.6,0.210,751.8,01.17,0.508
2017-04-08 01:09:00,1716E-3,5C000400,-0724,0838,12239,033.1,045.6,0.211,751.8,01.17,0.508
2017-04-08 01:10:00,1683E-3,5C000400,-0724,0838,12141,033.1,045.6,0.211,751.8,01.17,0.508
2017-04-08 01:11:00,1668E-3,5C000400,-0724,0838,11784,033.1,045.6,0.211,751.8,01.17,0.508
2017-04-08 01:12:00,1684E-3,5C000400,-0724,0838,12090,033.1,045.6,0.210,751.8,01.17,0.508
2017-04-08 01:13:00,1798E-3,5C000400,-0724,0837,11908,033.1,045.6,0.211,751.8,01.17,0.508
2017-04-08 01:14:00,1614E-3,5C000400,-0724,0838,12106,033.1,045.6,0.211,751.8,01.17,0.508
2017-04-08 01:15:00,1758E-3,5C000400,-0724,0837,12005,033.0,045.6,0.211,751.8,01.17,0.508
2017-04-08 01:16:00,1672E-3,5C000400,-0724,0837,11910,033.0,045.6,0.210,751.9,01.17,0.508
2017-04-08 01:17:00,1654E-3,5C000400,-0724,0838,11969,032.8,045.6,0.211,751.9,01.17,0.508
2017-04-08 01:18:00,1620E-3,5C000400,-0724,0838,12129,032.6,045.6,0.211,751.9,01.17,0.508
2017-04-08 01:19:00,1766E-3,5C000400,-0724,0837,11943,032.4,045.6,0.211,751.9,01.17,0.508
2017-04-08 01:20:00,1734E-3,5C000400,-0724,0837,12046,032.2,045.6,0.211,751.9,01.17,0.508
2017-04-08 01:21:00,1663E-3,5C000400,-0724,0837,12034,032.0,045.6,0.211,752.0,01.17,0.508
2017-04-08 01:22:00,1696E-3,5C000400,-0724,0836,12112,031.7,045.6,0.211,752.0,01.17,0.508
2017-04-08 01:23:00,1683E-3,5C000400,-0724,0836,12113,031.4,045.6,0.211,752.0,01.17,0.508
2017-04-08 01:24:00,1754E-3,5C000400,-0724,0836,12165,031.2,045.5,0.212,752.0,01.17,0.508
2017-04-08 01:25:00,1687E-3,5C000400,-0724,0836,12106,030.9,045.5,0.213,752.0,01.17,0.508
2017-04-08 01:26:00,1595E-3,5C000400,-0724,0836,12087,030.7,045.5,0.213,752.1,01.17,0.508
2017-04-08 01:27:00,1551E-3,5C000400,-0724,0835,12039,030.6,045.6,0.213,752.1,01.17,0.508
2017-04-08 01:28:00,1644E-3,5C000400,-0724,0836,12129,030.3,045.5,0.214,752.1,01.17,0.508
2017-04-08 01:29:00,1739E-3,5C000400,-0724,0836,12076,030.2,045.5,0.214,752.1,01.17,0.508
2017-04-08 01:30:00,1666E-3,5C000400,-0724,0836,12015,030.1,045.5,0.214,752.1,01.17,0.508
2017-04-08 01:31:00,1642E-3,5C000400,-0724,0836,12031,030.0,045.5,0.214,752.1,01.17,0.508
2017-04-08 01:32:00,1714E-3,5C000400,-0724,0835,12073,030.0,045.5,0.215,752.1,01.17,0.508
2017-04-08 01:33:00,1850E-3,5C000400,-0724,0835,12083,030.1,045.5,0.215,752.1,01.17,0.508
2017-04-08 01:34:00,1636E-3,5C000400,-0724,0835,12041,030.1,045.5,0.215,752.1,01.17,0.508
2017-04-08 01:35:00,1781E-3,5C000400,-0724,0836,12041,030.2,045.5,0.215,752.1,01.17,0.508
2017-04-08 01:36:00,1690E-3,5C000400,-0724,0835,12007,030.3,045.6,0.216,752.1,01.17,0.508
2017-04-08 01:37:00,1661E-3,5C000400,-0724,0835,12080,030.4,045.5,0.216,752.1,01.17,0.508
2017-04-08 01:38:00,1691E-3,5C000400,-0724,0836,11992,030.5,045.5,0.216,752.1,01.17,0.508
2017-04-08 01:39:00,1661E-3,5C000400,-0724,0836,12019,030.6,045.5,0.216,752.1,01.17,0.508
2017-04-08 01:40:00,1775E-3,5C000400,-0724,0836,12167,030.6,045.5,0.216,752.1,01.17,0.508
2017-04-08 01:41:00,1616E-3,5C000400,-0724,0836,12057,030.7,045.5,0.216,752.1,01.17,0.508
2017-04-08 01:42:00,1654E-3,5C000400,-0724,0836,12170,030.8,045.5,0.216,752.1,01.17,0.508
2017-04-08 01:43:00,1641E-3,5C000400,-0724,0835,12040,030.9,045.6,0.216,752.1,01.17,0.508
2017-04-08 01:44:00,1682E-3,5C000400,-0724,0836,12009,031.0,045.6,0.216,752.0,01.17,0.508
2017-04-08 01:45:00,1701E-3,5C000400,-0724,0836,12212,031.0,045.5,0.215,752.1,01.17,0.508
2017-04-08 01:46:00,1712E-3,5C000400,-0724,0837,11922,031.1,045.6,0.216,752.1,01.17,0.508
2017-04-08 01:47:00,1618E-3,5C000400,-0724,0837,11872,031.2,045.6,0.215,752.1,01.17,0.508
2017-04-08 01:48:00,1704E-3,5C000400,-0724,0837,12096,031.2,045.6,0.215,752.1,01.17,0.508
2017-04-08 01:49:00,1683E-3,5C000400,-0724,0837,11977,031.3,045.6,0.215,752.1,01.17,0.508
2017-04-08 01:50:00,1757E-3,5C000400,-0724,0837,12060,031.4,045.6,0.215,752.1,01.17,0.508
2017-04-08 01:51:00,1637E-3,5C000400,-0724,0837,11999,031.4,045.6,0.215,752.1,01.17,0.508
2017-04-08 01:52:00,1663E-3,5C000400,-0724,0836,12100,031.5,045.6,0.215,752.1,01.17,0.508
2017-04-08 01:53:00,1655E-3,5C000400,-0724,0836,12040,031.6,045.6,0.215,752.1,01.17,0.508
2017-04-08 01:54:00,1600E-3,5C000400,-0724,0836,12001,031.6,045.6,0.215,752.1,01.17,0.508
2017-04-08 01:55:00,1690E-3,5C000400,-0724,0837,12082,031.7,045.6,0.214,752.0,01.17,0.508
2017-04-08 01:56:00,1572E-3,5C000400,-0724,0837,12173,031.7,045.6,0.214,752.0,01.17,0.508
2017-04-08 01:57:00,1661E-3,5C000400,-0724,0837,12211,031.8,045.6,0.214,752.1,01.17,0.508
2017-04-08 01:58:00,1753E-3,5C000400,-0724,0836,11953,031.8,045.6,0.214,752.0,01.17,0.508
2017-04-08 01:59:00,1710E-3,5C000400,-0724,0836,12035,031.9,045.6,0.214,752.0,01.17,0.508
2017-04-08 02:00:00,1587E-3,5C000400,-0724,0837,12084,031.9,045.6,0.214,752.0,01.17,0.508
2017-04-08 02:01:00,1603E-3,5C000400,-0724,0836,12108,032.0,045.6,0.214,752.0,01.17,0.508
2017-04-08 02:02:00,1717E-3,5C000400,-0724,0837,12002,032.0,045.6,0.214,752.0,01.17,0.508
2017-04-08 02:03:00,1677E-3,5C000400,-0724,0837,11949,032.1,045.6,0.214,752.0,01.17,0.508
2017-04-08 02:04:00,1698E-3,5C000400,-0724,0837,12065,032.1,045.6,0.213,752.0,01.17,0.508
2017-04-08 02:05:00,1684E-3,5C000400,-0724,0836,12136,032.2,045.6,0.213,752.0,01.17,0.508
2017-04-08 02:06:00,1699E-3,5C000400,-0724,0837,12023,032.2,045.6,0.213,752.0,01.17,0.508
2017-04-08 02:07:00,1648E-3,5C000400,-0724,0838,12017,032.3,045.6,0.213,752.0,01.17,0.508
2017-04-08 02:08:00,1587E-3,5C000400,-0724,0837,12109,032.3,045.6,0.213,752.0,01.17,0.508
2017-04-08 02:09:00,1688E-3,5C000400,-0724,0837,12009,032.3,045.6,0.213,752.0,01.17,0.508
2017-04-08 02:10:00,1757E-3,5C000400,-0724,0837,12053,032.4,045.6,0.213,752.0,01.17,0.508
2017-04-08 02:11:00,1620E-3,5C000400,-0724,0837,12109,032.4,045.6,0.212,752.0,01.17,0.508
2017-04-08 02:12:00,1677E-3,5C000400,-0724,0837,12101,032.4,045.6,0.212,752.0,01.17,0.508
2017-04-08 02:13:00,1748E-3,5C000400,-0724,0836,12045,032.3,045.6,0.213,752.0,01.17,0.508
2017-04-08 02:14:00,1728E-3,5C000400,-0724,0837,11998,032.2,045.6,0.213,752.0,01.17,0.508
2017-04-08 02:15:00,1545E-3,5C000400,-0724,0837,12137,032.0,045.6,0.212,752.1,01.17,0.508
2017-04-08 02:16:00,1607E-3,5C000400,-0724,0838,11992,031.8,045.6,0.212,752.1,01.17,0.508
2017-04-08 02:17:00,1623E-3,5C000400,-0724,0836,12077,031.7,045.6,0.212,752.1,01.17,0.508
2017-04-08 02:18:00,1599E-3,5C000400,-0724,0837,11857,031.5,045.6,0.213,752.1,01.17,0.508
2017-04-08 02:19:00,1560E-3,5C000400,-0724,0836,12192,031.2,045.5,0.213,752.1,01.17,0.508
2017-04-08 02:20:00,1633E-3,5C000400,-0724,0836,12116,031.0,045.5,0.213,752.1,01.17,0.508
2017-04-08 02:21:00,1629E-3,5C000400,-0724,0835,12085,030.7,045.5,0.214,752.2,01.17,0.508
2017-04-08 02:22:00,1755E-3,5C000400,-0724,0836,11892,030.5,045.5,0.214,752.1,01.17,0.508
2017-04-08 02:23:00,1679E-3,5C000400,-0724,0837,12068,030.3,045.5,0.214,752.2,01.17,0.508
2017-04-08 02:24:00,1727E-3,5C000400,-0724,0835,12021,030.1,045.5,0.214,752.2,01.17,0.508
2017-04-08 02:25:00,1750E-3,5C000400,-0724,0836,12208,029.9,045.5,0.215,752.1,01.17,0.508
2017-04-08 02:26:00,1588E-3,5C000400,-0724,0836,11940,029.8,045.5,0.215,752.1,01.17,0.508
2017-04-08 02:27:00,1583E-3,5C000400,-0724,0836,12062,029.7,045.5,0.216,752.2,01.17,0.508
2017-04-08 02:28:00,1562E-3,5C000400,-0724,0835,11896,029.6,045.5,0.216,752.1,01.17,0.508
2017-04-08 02:29:00,1620E-3,5C000400,-0724,0835,12071,029.6,045.5,0.216,752.1,01.17,0.508
2017-04-08 02:30:00,1670E-3,5C000400,-0724,0836,12053,029.5,045.5,0.216,752.1,01.17,0.508
2017-04-08 02:31:00,1657E-3,5C000400,-0724,0836,12127,029.6,045.5,0.216,752.1,01.17,0.508
2017-04-08 02:32:00,1879E-3,5C000400,-0724,0836,11987,029.7,045.5,0.217,752.1,01.17,0.508
2017-04-08 02:33:00,1800E-3,5C000400,-0724,0836,12071,029.8,045.5,0.217,752.1,01.17,0.508
2017-04-08 02:34:00,1747E-3,5C000400,-0724,0835,11969,029.9,045.5,0.217,752.1,01.17,0.508
2017-04-08 02:35:00,1746E-3,5C000400,-0724,0836,12205,030.0,045.5,0.217,752.1,01.17,0.508
2017-04-08 02:36:00,1532E-3,5C000400,-0724,0836,12052,030.2,045.5,0.217,752.1,01.17,0.508
2017-04-08 02:37:00,1659E-3,5C000400,-0724,0835,12035,030.3,045.5,0.217,752.1,01.17,0.508
2017-04-08 02:38:00,1608E-3,5C000400,-0724,0835,12056,030.4,045.5,0.217,752.1,01.17,0.508
2017-04-08 02:39:00,1638E-3,5C000400,-0724,0836,12043,030.5,045.5,0.217,752.1,01.17,0.508
2017-04-08 02:40:00,1802E-3,5C000400,-0724,0836,12061,030.6,045.5,0.217,752.1,01.17,0.508
2017-04-08 02:41:00,1585E-3,5C000400,-0724,0836,11851,030.6,045.5,0.217,752.1,01.17,0.508
2017-04-08 02:42:00,1693E-3,5C000400,-0724,0836,11989,030.7,045.5,0.217,752.1,01.17,0.508
2017-04-08 02:43:00,1628E-3,5C000400,-0724,0836,12036,030.8,045.5,0.216,752.1,01.17,0.508
2017-04-08 02:44:00,1543E-3,5C000400,-0724,0837,12156,030.9,045.5,0.216,752.1,01.17,0.508
2017-04-08 02:45:00,1650E-3,5C000400,-0724,0836,12074,031.0,045.5,0.216,752.1,01.17,0.508
2017-04-08 02:46:00,1763E-3,5C000400,-0724,0836,12177,031.1,045.5,0.216,752.1,01.17,0.508
2017-04-08 02:47:00,1454E-3,5C000400,-0724,0836,12002,031.2,045.6,0.215,752.1,01.17,0.508
2017-04-08 02:48:00,1685E-3,5C000400,-0724,0836,11986,031.3,045.6,0.215,752.1,01.17,0.508
2017-04-08 02:49:00,1788E-3,5C000400,-0724,0837,12071,031.3,045.6,0.216,752.1,01.17,0.508
2017-04-08 02:50:00,1617E-3,5C000400,-0724,0837,12223,031.4,045.6,0.215,752.1,01.17,0.508
2017-04-08 02:51:00,1803E-3,5C000400,-0724,0838,12018,031.5,045.6,0.215,752.1,01.17,0.508
2017-04-08 02:52:00,1630E-3,5C000400,-0724,0837,12023,031.6,045.6,0.215,752.1,01.17,0.508
2017-04-08 02:53:00,1672E-3,5C000400,-0724,0837,12140,031.6,045.6,0.215,752.1,01.17,0.508
2017-04-08 02:54:00,1662E-3,5C000400,-0724,0836,12046,031.6,045.6,0.215,752.1,01.17,0.508
2017-04-08 02:55:00,1627E-3,5C000400,-0724,0837,12187,031.5,045.5,0.214,752.1,01.17,0.508
2017-04-08 02:56:00,1735E-3,5C000400,-0724,0837,12042,031.4,045.6,0.214,752.1,01.17,0.508
2017-04-08 02:57:00,1656E-3,5C000400,-0724,0836,12053,031.3,045.6,0.215,752.1,01.17,0.508
2017-04-08 02:58:00,1616E-3,5C000400,-0724,0836,12197,031.2,045.5,0.214,752.1,01.17,0.508
2017-04-08 02:59:00,1715E-3,5C000400,-0724,0836,11899,030.9,045.5,0.214,752.1,01.17,0.508
2017-04-08 03:00:00,1733E-3,5C000400,-0724,0836,12061,030.8,045.5,0.215,752.1,01.17,0.508
2017-04-08 03:01:00,1655E-3,5C000400,-0724,0836,12029,030.6,045.5,0.215,752.1,01.17,0.508
2017-04-08 03:02:00,1694E-3,5C000400,-0724,0837,12077,030.4,045.5,0.215,752.1,01.17,0.508
2017-04-08 03:03:00,1538E-3,5C000400,-0724,0836,12109,030.2,045.5,0.216,752.1,01.17,0.508
2017-04-08 03:04:00,1686E-3,5C000400,-0724,0836,12108,029.9,045.5,0.215,752.2,01.17,0.508
2017-04-08 03:05:00,1706E-3,5C000400,-0724,0836,12174,029.8,045.5,0.215,752.2,01.17,0.508
2017-04-08 03:06:00,1801E-3,5C000400,-0724,0836,11779,029.7,045.5,0.216,752.2,01.17,0.508
2017-04-08 03:07:00,1716E-3,5C000400,-0724,0835,12067,029.5,045.5,0.216,752.2,01.17,0.508
2017-04-08 03:08:00,1671E-3,5C000400,-0724,0835,12080,029.4,045.5,0.216,752.2,01.17,0.508
2017-04-08 03:09:00,1763E-3,5C000400,-0724,0836,12046,029.3,045.5,0.217,752.2,01.17,0.508
2017-04-08 03:10:00,1692E-3,5C000400,-0724,0836,12062,029.3,045.5,0.217,752.2,01.17,0.508
2017-04-08 03:11:00,1740E-3,5C000400,-0724,0836,12049,029.3,045.5,0.217,752.2,01.17,0.508
2017-04-08 03:12:00,1696E-3,5C000400,-0724,0836,12012,029.2,045.5,0.217,752.2,01.17,0.508
2017-04-08 03:13:00,1656E-3,5C000400,-0724,0836,12003,029.3,045.5,0.217,752.2,01.17,0.508
2017-04-08 03:14:00,1678E-3,5C000400,-0724,0835,11895,029.3,045.5,0.218,752.2,01.17,0.508
2017-04-08 03:15:00,1720E-3,5C000400,-0724,0836,12141,029.4,045.5,0.218,752.2,01.17,0.508
2017-04-08 03:16:00,1612E-3,5C000400,-0724,0835,12065,029.5,045.5,0.218,752.2,01.17,0.508
2017-04-08 03:17:00,1611E-3,5C000400,-0724,0836,11903,029.7,045.5,0.218,752.2,01.17,0.508
2017-04-08 03:18:00,1570E-3,5C000400,-0724,0835,12078,029.8,045.5,0.218,752.2,01.17,0.508
2017-04-08 03:19:00,1653E-3,5C000400,-0724,0836,12089,029.9,045.5,0.218,752.2,01.17,0.508
2017-04-08 03:20:00,1565E-3,5C000400,-0724,0835,12119,030.0,045.5,0.218,752.2,01.17,0.508
2017-04-08 03:21:00,1644E-3,5C000400,-0724,0836,12009,030.0,045.5,0.218,752.2,01.17,0.508
2017-04-08 03:22:00,1659E-3,5C000400,-0724,0836,12024,030.0,045.5,0.217,752.2,01.17,0.508
2017-04-08 03:23:00,1616E-3,5C000400,-0724,0836,11939,030.0,045.5,0.217,752.2,01.17,0.508
2017-04-08 03:24:00,1701E-3,5C000400,-0724,0835,11960,029.9,045.5,0.218,752.2,01.17,0.508
2017-04-08 03:25:00,1585E-3,5C000400,-0724,0836,12099,029.8,045.5,0.217,752.2,01.17,0.508
2017-04-08 03:26:00,1627E-3,5C000400,-0724,0836,11981,029.7,045.5,0.217,752.3,01.17,0.508
2017-04-08 03:27:00,1643E-3,5C000400,-0724,0836,11979,029.6,045.5,0.217,752.3,01.17,0.508
2017-04-08 03:28:00,1692E-3,5C000400,-0724,0836,12109,029.5,045.5,0.218,752.3,01.17,0.508
2017-04-08 03:29:00,1635E-3,5C000400,-0724,0836,12015,029.3,045.5,0.218,752.3,01.17,0.508
2017-04-08 03:30:00,1676E-3,5C000400,-0724,0835,12024,029.2,045.5,0.218,752.3,01.17,0.508
2017-04-08 03:31:00,1698E-3,5C000400,-0724,0836,12129,029.1,045.5,0.217,752.3,01.17,0.508
2017-04-08 03:32:00,1659E-3,5C000400,-0724,0835,11984,029.0,045.5,0.218,752.3,01.17,0.508
2017-04-08 03:33:00,1684E-3,5C000400,-0724,0836,12092,029.0,045.5,0.218,752.3,01.17,0.508
2017-04-08 03:34:00,1699E-3,5C000400,-0724,0835,12146,029.0,045.5,0.218,752.3,01.17,0.508
2017-04-08 03:35:00,1599E-3,5C000400,-0724,0836,12057,029.0,045.5,0.218,752.3,01.17,0.508
2017-04-08 03:36:00,1583E-3,5C000400,-0724,0836,12086,029.0,045.5,0.218,752.3,01.17,0.508
2017-04-08 03:37:00,1610E-3,5C000400,-0724,0835,11929,029.0,045.5,0.218,752.3,01.17,0.508
2017-04-08 03:38:00,1757E-3,5C000400,-0724,0836,12129,029.0,045.5,0.219,752.3,01.17,0.508
2017-04-08 03:39:00,1674E-3,5C000400,-0724,0836,12114,029.1,045.5,0.219,752.3,01.17,0.508
2017-04-08 03:40:00,1653E-3,5C000400,-0724,0836,12110,029.1,045.5,0.219,752.3,01.17,0.508
2017-04-08 03:41:00,1687E-3,5C000400,-0724,0835,12098,029.1,045.5,0.219,752.3,01.17,0.508
2017-04-08 03:42:00,1750E-3,5C000400,-0724,0835,12097,029.1,045.5,0.219,752.3,01.17,0.508
2017-04-08 03:43:00,1804E-3,5C000400,-0724,0836,11994,029.0,045.5,0.219,752.3,01.17,0.508
2017-04-08 03:44:00,1700E-3,5C000400,-0724,0835,12088,029.0,045.5,0.219,752.3,01.17,0.508
2017-04-08 03:45:00,1581E-3,5C000400,-0724,0835,12160,029.0,045.5,0.219,752.3,01.17,0.508
2017-04-08 03:46:00,1627E-3,5C000400,-0724,0835,12059,029.0,045.5,0.219,752.3,01.17,0.508
2017-04-08 03:47:00,1744E-3,5C000400,-0724,0835,12136,029.0,045.5,0.219,752.3,01.17,0.508
2017-04-08 03:48:00,1672E-3,5C000400,-0724,0836,12070,029.0,045.5,0.219,752.3,01.17,0.508
2017-04-08 03:49:00,1630E-3,5C000400,-0724,0836,12032,029.0,045.5,0.219,752.3,01.17,0.508
2017-04-08 03:50:00,1731E-3,5C000400,-0724,0836,12094,029.0,045.5,0.219,752.3,01.17,0.508
2017-04-08 03:51:00,1643E-3,5C000400,-0724,0835,12141,028.9,045.5,0.219,752.3,01.17,0.508
2017-04-08 03:52:00,1735E-3,5C000400,-0724,0836,12009,028.9,045.5,0.219,752.3,01.17,0.508
2017-04-08 03:53:00,1656E-3,5C000400,-0724,0836,12114,028.9,045.5,0.219,752.3,01.17,0.508
2017-04-08 03:54:00,1642E-3,5C000400,-0724,0835,12080,028.9,045.5,0.219,752.3,01.17,0.508
2017-04-08 03:55:00,1564E-3,5C000400,-0724,0836,11950,028.9,045.5,0.219,752.3,01.17,0.508
2017-04-08 03:56:00,1774E-3,5C000400,-0724,0836,12128,028.9,045.5,0.219,752.3,01.17,0.508
2017-04-08 03:57:00,1748E-3,5C000400,-0724,0836,12102,028.9,045.5,0.219,752.3,01.17,0.508
2017-04-08 03:58:00,1729E-3,5C000400,-0724,0836,12098,028.8,045.5,0.219,752.3,01.17,0.508
2017-04-08 03:59:00,1822E-3,5C000400,-0724,0835,12005,028.8,045.5,0.219,752.4,01.17,0.508
2017-04-08 04:00:00,1876E-3,5C000400,-0724,0836,11992,028.7,045.5,0.219,752.3,01.17,0.508
2017-04-08 04:01:00,1612E-3,5C000400,-0724,0836,11927,028.7,045.5,0.220,752.3,01.17,0.508
2017-04-08 04:02:00,1711E-3,5C000400,-0724,0835,12053,028.7,045.5,0.220,752.3,01.17,0.508
2017-04-08 04:03:00,1570E-3,5C000400,-0724,0836,12262,028.7,045.5,0.220,752.2,01.17,0.508
2017-04-08 04:04:00,1690E-3,5C000400,-0724,0836,12089,028.6,045.5,0.220,752.4,01.17,0.508
2017-04-08 04:05:00,1487E-3,5C000400,-0724,0836,12149,028.6,045.5,0.220,752.4,01.17,0.508
2017-04-08 04:06:00,1622E-3,5C000400,-0724,0836,12137,028.6,045.5,0.220,752.4,01.17,0.508
2017-04-08 04:07:00,1715E-3,5C000400,-0724,0836,11981,028.6,045.5,0.219,752.4,01.17,0.508
2017-04-08 04:08:00,1600E-3,5C000400,-0724,0835,12093,028.6,045.5,0.220,752.4,01.17,0.508
2017-04-08 04:09:00,1690E-3,5C000400,-0724,0836,12073,028.6,045.5,0.220,752.3,01.17,0.508
2017-04-08 04:10:00,1570E-3,5C000400,-0724,0836,12219,028.6,045.5,0.220,752.4,01.17,0.508
2017-04-08 04:11:00,1714E-3,5C000400,-0724,0836,12061,028.6,045.5,0.220,752.4,01.17,0.508
2017-04-08 04:12:00,1823E-3,5C000400,-0724,0835,12002,028.6,045.5,0.220,752.4,01.17,0.508
2017-04-08 04:13:00,1651E-3,5C000400,-0724,0836,12059,028.7,045.5,0.220,752.4,01.17,0.508
2017-04-08 04:14:00,1747E-3,5C000400,-0724,0835,12044,028.7,045.5,0.220,752.4,01.17,0.508
2017-04-08 04:15:00,1690E-3,5C000400,-0724,0836,12050,028.7,045.5,0.220,752.4,01.17,0.508
2017-04-08 04:16:00,1612E-3,5C000400,-0724,0836,12189,028.7,045.5,0.220,752.4,01.17,0.508
2017-04-08 04:17:00,1785E-3,5C000400,-0724,0835,12019,028.7,045.5,0.220,752.3,01.17,0.508
2017-04-08 04:18:00,1620E-3,5C000400,-0724,0836,12170,028.7,045.5,0.220,752.4,01.17,0.508
2017-04-08 04:19:00,1699E-3,5C000400,-0724,0836,12092,028.7,045.5,0.220,752.4,01.17,0.508
2017-04-08 04:20:00,1754E-3,5C000400,-0724,0836,12178,028.6,045.5,0.220,752.3,01.17,0.508